| time (UTC) | temp C | wind direction | speed KPH | gust KPH | rain 1hr cm | rain 24hr cm | rain mn cm | humidity % | barometer mb |
| 20260503224507 | 15 | 247 | 0.0 | 0.0 | 0.00 | 0.00 | 0.00 | 58 | 1021.0 |
| 20260503223041 | 16 | 231 | 0.0 | 8.0 | 0.00 | 0.00 | 0.00 | 56 | 1021.0 |
| 20260503221527 | 16 | 201 | 1.6 | 6.4 | 0.00 | 0.00 | 0.00 | 56 | 1021.0 |
| 20260503220056 | 15 | 255 | 0.0 | 8.0 | 0.00 | 0.00 | 0.00 | 57 | 1021.0 |
| 20260503214529 | 15 | 216 | 0.0 | 6.4 | 0.00 | 0.00 | 0.00 | 59 | 1020.9 |
| 20260503213009 | 15 | 205 | 1.6 | 9.7 | 0.00 | 0.00 | 0.00 | 61 | 1021.0 |
| 20260503211545 | 15 | 186 | 0.0 | 4.8 | 0.00 | 0.00 | 0.00 | 62 | 1021.0 |
| 20260503210025 | 15 | 200 | 0.0 | 6.4 | 0.00 | 0.00 | 0.00 | 64 | 1020.9 |
| 20260503204505 | 15 | 188 | 1.6 | 9.7 | 0.00 | 0.00 | 0.00 | 66 | 1020.9 |
| 20260503203052 | 15 | 191 | 1.6 | 8.0 | 0.00 | 0.00 | 0.00 | 66 | 1021.1 |
| 20260503201521 | 15 | 162 | 4.8 | 12.9 | 0.00 | 0.00 | 0.00 | 68 | 1020.9 |
| 20260503200057 | 15 | 195 | 1.6 | 11.3 | 0.00 | 0.00 | 0.00 | 68 | 1020.9 |
| 20260503194535 | 15 | 250 | 4.8 | 12.9 | 0.00 | 0.00 | 0.00 | 65 | 1020.9 |
| 20260503193011 | 15 | 152 | 3.2 | 11.3 | 0.00 | 0.00 | 0.00 | 64 | 1020.8 |
| 20260503191553 | 15 | 178 | 4.8 | 12.9 | 0.00 | 0.00 | 0.00 | 63 | 1020.8 |
| 20260503190030 | 15 | 108 | 8.0 | 14.5 | 0.00 | 0.00 | 0.00 | 61 | 1020.6 |
| 20260503184503 | 16 | 219 | 3.2 | 9.7 | 0.00 | 0.00 | 0.00 | 53 | 1020.5 |
| 20260503183041 | 16 | 349 | 4.8 | 12.9 | 0.00 | 0.00 | 0.00 | 47 | 1020.2 |
| 20260503181516 | 16 | 348 | 9.7 | 16.1 | 0.00 | 0.00 | 0.00 | 48 | 1020.0 |
| 20260503174531 | 17 | 355 | 11.3 | 17.7 | 0.00 | 0.00 | 0.00 | 47 | 1020.1 |
| 20260503173013 | 17 | 340 | 11.3 | 20.9 | 0.00 | 0.00 | 0.00 | 47 | 1019.8 |
| 20260503171549 | 17 | 339 | 12.9 | 20.9 | 0.00 | 0.00 | 0.00 | 45 | 1019.8 |
| 20260503081551 | 17 | 307 | 17.7 | 30.6 | 0.00 | 0.00 | 0.00 | 45 | 1021.3 |
| 20260503071522 | 16 | 6 | 17.7 | 32.2 | 0.00 | 0.00 | 0.00 | 51 | 1021.2 |
| 20260503054508 | 12 | 273 | 16.1 | 30.6 | 0.00 | 0.00 | 0.00 | 61 | 1021.1 |
| 20260503053046 | 11 | 261 | 14.5 | 24.1 | 0.00 | 0.00 | 0.00 | 62 | 1021.0 |
| 20260503051522 | 11 | 314 | 16.1 | 24.1 | 0.00 | 0.00 | 0.00 | 63 | 1021.0 |
| 20260503050100 | 11 | 331 | 19.3 | 30.6 | 0.00 | 0.00 | 0.00 | 61 | 1020.9 |
| 20260503050002 | 11 | 324 | 19.3 | 30.6 | 0.00 | 0.00 | 0.00 | 61 | 1020.9 |
| 20260503044543 | 10 | 295 | 20.9 | 32.2 | 0.00 | 0.00 | 0.00 | 62 | 1020.8 |
| 20260503043016 | 10 | 286 | 19.3 | 25.7 | 0.00 | 0.00 | 0.00 | 64 | 1020.9 |
| 20260503041554 | 10 | 295 | 14.5 | 24.1 | 0.00 | 0.00 | 0.00 | 64 | 1020.9 |
| 20260503040030 | 9 | 261 | 16.1 | 24.1 | 0.00 | 0.00 | 0.00 | 65 | 1020.9 |
| 20260503034510 | 9 | 274 | 14.5 | 27.4 | 0.00 | 0.00 | 0.00 | 65 | 1020.9 |
| 20260503033044 | 9 | 326 | 16.1 | 27.4 | 0.00 | 0.00 | 0.00 | 66 | 1020.8 |
| 20260503031524 | 8 | 289 | 16.1 | 27.4 | 0.00 | 0.00 | 0.00 | 67 | 1020.9 |
| 20260503030058 | 8 | 298 | 17.7 | 29.0 | 0.00 | 0.00 | 0.00 | 67 | 1021.0 |
| 20260503030007 | 8 | 282 | 17.7 | 29.0 | 0.00 | 0.00 | 0.00 | 67 | 1021.0 |
| 20260503024537 | 8 | 314 | 16.1 | 22.5 | 0.00 | 0.00 | 0.00 | 67 | 1021.0 |
| 20260503023018 | 9 | 313 | 12.9 | 20.9 | 0.00 | 0.00 | 0.00 | 66 | 1021.2 |
| 20260503021543 | 9 | 332 | 12.9 | 20.9 | 0.00 | 0.00 | 0.00 | 66 | 1021.3 |
| 20260503020024 | 8 | 271 | 12.9 | 19.3 | 0.00 | 0.00 | 0.00 | 67 | 1021.4 |
| 20260503014610 | 8 | 273 | 12.9 | 20.9 | 0.00 | 0.00 | 0.00 | 68 | 1021.5 |
| 20260503013038 | 8 | 273 | 14.5 | 20.9 | 0.00 | 0.00 | 0.00 | 69 | 1021.5 |
| 20260503011514 | 8 | 238 | 14.5 | 22.5 | 0.00 | 0.00 | 0.00 | 70 | 1021.8 |
| 20260503010051 | 8 | 275 | 14.5 | 22.5 | 0.00 | 0.00 | 0.00 | 70 | 1021.8 |
| 20260503004533 | 7 | 323 | 16.1 | 22.5 | 0.00 | 0.00 | 0.00 | 71 | 1022.0 |
| 20260503003007 | 8 | 270 | 17.7 | 29.0 | 0.00 | 0.00 | 0.00 | 71 | 1022.1 |
| 20260503001556 | 7 | 329 | 14.5 | 22.5 | 0.00 | 0.00 | 0.00 | 73 | 1022.0 |
| 20260503000021 | 8 | 264 | 16.1 | 24.1 | 0.00 | 0.00 | 0.00 | 73 | 1022.4 |
| 20260502234559 | 8 | 265 | 14.5 | 24.1 | 0.00 | 0.00 | 0.00 | 71 | 1022.6 |
| 20260502234501 | 8 | 294 | 14.5 | 24.1 | 0.00 | 0.00 | 0.00 | 71 | 1022.7 |
| 20260502233034 | 8 | 282 | 14.5 | 20.9 | 0.00 | 0.00 | 0.00 | 72 | 1022.8 |
| 20260502231517 | 8 | 271 | 11.3 | 17.7 | 0.00 | 0.00 | 0.00 | 72 | 1023.1 |
| 20260502230049 | 8 | 271 | 11.3 | 17.7 | 0.00 | 0.05 | 0.00 | 73 | 1023.5 |